• Join FlightAware (Why Join?)
  • Login
  • US Flag 
Rudolph Flight #1: Arrived! 
07:30PM EST


 

Airport Tracker/Info


-or-


 

Live Flight TrackerFlight Track Log ✈ SWA232 ✈ 25-Apr-2013 ✈ KMDW - KPHX

Flight Track Log - Related Links

Times and Time Zones

All times are in EDT time to prevent confusion due to time zone crossing. See the SWA232 flight status page for this flight to view local times or setup timezone preferences in your user account.

Time Position Orientation Groundspeed Altitude Reporting Facility
EDT Latitude Longitude Course Direction KTS MPH feet Rate Location/Type
10:22AM 41.8000 -87.7833 236° Southwest 144 166 2,100  Level Chicago TRACON
10:23AM 41.7667 -87.8500 236° Southwest 217 250 3,300 1,800 Climbing Chicago TRACON
10:24AM 41.7547 -87.9206 257° West 225 259 6,000 2,400 Climbing Chicago Center
10:25AM 41.7611 -88.0042 276° West 229 264 8,300 2,700 Climbing Chicago Center
10:26AM 41.7681 -88.0983 276° West 253 291 11,600 1,860 Climbing Chicago Center
10:27AM 41.7756 -88.2217 275° West 284 327 12,200 2,160 Climbing Chicago Center
10:28AM 41.7839 -88.3347 276° West 308 354 16,100 3,120 Climbing Chicago Center
10:29AM 41.7900 -88.4317 275° West 271 312 18,700 2,220 Climbing Chicago Center
10:30AM 41.7975 -88.5317 276° West 270 311 20,700 1,200 Climbing Chicago Center
10:32AM 41.7742 -88.6456 255° West 317 365 21,300 900 Climbing Chicago Center
10:33AM 41.7411 -88.8011 254° West 354 407 22,600 1,380 Climbing Chicago Center
10:34AM 41.7111 -88.9356 253° West 372 428 24,200 1,500 Climbing Chicago Center
10:35AM 41.6808 -89.0719 253° West 384 442 25,800 1,440 Climbing Chicago Center
10:36AM 41.6503 -89.2092 253° West 387 445 27,200 1,500 Climbing Chicago Center
10:37AM 41.6206 -89.3458 254° West 385 443 28,900 1,560 Climbing Chicago Center
10:38AM 41.5853 -89.5050 254° West 378 435 30,500 1,440 Climbing Chicago Center
10:39AM 41.5533 -89.6406 253° West 372 428 31,900 1,200 Climbing Chicago Center
10:40AM 41.5239 -89.7722 253° West 371 427 33,000 900 Climbing Chicago Center
10:41AM 41.4928 -89.9047 253° West 375 432 33,800 720 Climbing Chicago Center
10:42AM 41.4631 -90.0381 253° West 377 434 34,600 720 Climbing Chicago Center
10:43AM 41.4317 -90.1714 253° West 378 435 35,300 660 Climbing Chicago Center
10:44AM 41.3944 -90.3331 253° West 383 441 36,000 300 Climbing Chicago Center
10:45AM 41.3625 -90.4675 252° West 383 441 36,000  Level Chicago Center
10:46AM 41.3308 -90.6025 253° West 383 441 36,000  Level Chicago Center
10:47AM 41.2914 -90.7394 249° West 394 453 36,000  Level Chicago Center
10:48AM 41.2533 -90.8692 249° West 381 438 36,000  Level Chicago Center
10:49AM 41.2142 -91.0003 248° West 382 440 36,000  Level Chicago Center
10:50AM 41.1681 -91.1561 249° West 378 435 36,000  Level Chicago Center
10:51AM 41.1306 -91.2844 249° West 375 432 36,000  Level Chicago Center
10:52AM 41.0911 -91.4111 248° West 374 430 36,000  Level Chicago Center
10:53AM 41.0528 -91.5369 248° West 371 427 36,000  Level Chicago Center
10:54AM 41.0100 -91.6828 249° West 373 429 36,000  Level Chicago Center
10:55AM 40.9708 -91.8097 248° West 375 432 36,000  Level Chicago Center
10:56AM 40.9319 -91.9358 248° West 375 432 36,000  Level Chicago Center
10:57AM 40.8928 -92.0617 248° West 373 429 36,000  Level Chicago Center
10:58AM 40.8542 -92.1889 248° West 377 434 36,000  Level Chicago Center
10:59AM 40.8067 -92.3406 248° West 377 434 36,000  Level Chicago Center
11:00AM 40.7661 -92.4664 247° West 377 434 36,000  Level Chicago Center
11:01AM 40.7275 -92.5922 248° West 375 432 36,000  Level Chicago Center
11:03AM 40.6886 -92.7169 248° West 374 430 36,000  Level Chicago Center
11:04AM 40.6492 -92.8392 247° West 368 423 36,000  Level Chicago Center
11:04AM 40.6242 -92.9142 246° West 371 427 36,000  Level Kansas City Center
11:05AM 40.5861 -93.0372 248° West 370 426 36,000  Level Kansas City Center
11:06AM 40.5458 -93.1617 247° West 373 429 36,000  Level Kansas City Center
11:07AM 40.4975 -93.3114 247° West 375 432 36,000  Level Kansas City Center
11:08AM 40.4567 -93.4378 247° West 378 435 36,000  Level Kansas City Center
11:09AM 40.4156 -93.5631 247° West 377 434 36,000  Level Kansas City Center
11:10AM 40.3739 -93.6889 247° West 379 436 36,000  Level Kansas City Center
11:11AM 40.3331 -93.8131 247° West 376 433 36,000  Level Kansas City Center
11:12AM 40.2928 -93.9650 251° West 371 427 36,000  Level Kansas City Center
11:13AM 40.2614 -94.0883 252° West 367 422 36,000  Level Kansas City Center
11:14AM 40.2292 -94.2078 251° West 366 421 36,000  Level Kansas City Center
11:15AM 40.1919 -94.3444 250° West 360 414 36,000  Level Kansas City Center
11:16AM 40.1608 -94.4619 251° West 357 411 36,000  Level Kansas City Center
11:17AM 40.1242 -94.5978 251° West 356 410 36,000  Level Kansas City Center
11:19AM 40.0925 -94.7133 250° West 354 407 36,000  Level Kansas City Center
11:20AM 40.0564 -94.8464 251° West 349 402 36,000  Level Kansas City Center
11:21AM 40.0253 -94.9586 250° West 346 398 36,000  Level Kansas City Center
11:22AM 39.9897 -95.0906 251° West 346 398 36,000  Level Kansas City Center
11:23AM 39.9578 -95.2028 250° West 347 399 36,000  Level Kansas City Center
11:24AM 39.9217 -95.3353 250° West 348 400 36,000  Level Kansas City Center
11:25AM 39.8900 -95.4481 250° West 348 400 36,000  Level Kansas City Center
11:26AM 39.8531 -95.5806 250° West 348 400 36,000  Level Kansas City Center
11:27AM 39.8208 -95.6950 250° West 351 404 36,000  Level Kansas City Center
11:28AM 39.7814 -95.8317 249° West 359 413 36,000  Level Kansas City Center
11:29AM 39.7483 -95.9486 250° West 361 415 36,000  Level Kansas City Center
11:30AM 39.7089 -96.0853 249° West 363 418 36,000  Level Kansas City Center
11:31AM 39.6733 -96.2089 250° West 364 419 36,000  Level Kansas City Center
11:32AM 39.6378 -96.3322 250° West 365 420 36,000  Level Kansas City Center
11:33AM 39.6022 -96.4539 249° West 362 417 36,000  Level Kansas City Center
11:34AM 39.5647 -96.5850 250° West 361 415 36,000  Level Kansas City Center
11:35AM 39.5297 -96.7050 249° West 357 411 36,000  Level Kansas City Center
11:36AM 39.4872 -96.8403 248° West 356 410 36,000  Level Kansas City Center
11:37AM 39.4536 -96.9539 249° West 355 409 36,000  Level Kansas City Center
11:38AM 39.4158 -97.0853 250° West 351 404 36,000  Level Kansas City Center
11:39AM 39.3817 -97.1994 249° West 355 409 36,000  Level Kansas City Center
11:40AM 39.3478 -97.3153 249° West 357 411 36,000  Level Kansas City Center
11:41AM 39.3072 -97.4497 249° West 361 415 36,000  Level Kansas City Center
11:42AM 39.2722 -97.5686 249° West 363 418 36,000  Level Kansas City Center
11:43AM 39.2311 -97.7031 248° West 359 413 36,000  Level Kansas City Center
11:44AM 39.1978 -97.8136 249° West 359 413 36,000  Level Kansas City Center
11:45AM 39.1583 -97.9406 248° West 364 419 36,000  Level Kansas City Center
11:46AM 39.1208 -98.0622 248° West 368 423 36,000  Level Kansas City Center
11:47AM 39.0836 -98.1822 248° West 365 420 36,000  Level Kansas City Center
11:49AM 39.0403 -98.3228 248° West 358 412 36,000  Level Kansas City Center
11:50AM 39.0028 -98.4414 248° West 359 413 36,000  Level Kansas City Center
11:51AM 38.9650 -98.5600 248° West 360 414 36,000  Level Kansas City Center
11:52AM 38.9283 -98.6775 248° West 357 411 36,000  Level Kansas City Center
11:53AM 38.8917 -98.7925 248° West 352 405 36,000  Level Kansas City Center
11:54AM 38.8556 -98.9089 248° West 352 405 36,000  Level Kansas City Center
11:55AM 38.8111 -99.0458 247° West 349 402 36,000  Level Kansas City Center
11:56AM 38.7744 -99.1606 248° West 348 400 36,000  Level Kansas City Center
11:57AM 38.7378 -99.2758 248° West 350 403 36,000  Level Kansas City Center
11:58AM 38.7006 -99.3914 248° West 352 405 36,000  Level Kansas City Center
11:59AM 38.6644 -99.5064 248° West 350 403 36,000  Level Kansas City Center
12:00PM 38.6169 -99.6436 246° West 354 407 36,000  Level Kansas City Center
12:01PM 38.5833 -99.7542 249° West 350 403 36,000  Level Kansas City Center
12:02PM 38.5400 -99.8833 247° West 353 406 36,000  Level Kansas City Center
12:03PM 38.5022 -99.9931 246° West 353 406 36,000  Level Kansas City Center
12:04PM 38.4606 -100.1247 248° West 357 411 36,000  Level Kansas City Center
12:05PM 38.4228 -100.2361 247° West 358 412 36,000  Level Kansas City Center
12:06PM 38.3789 -100.3669 247° West 359 413 36,000  Level Kansas City Center
12:07PM 38.3411 -100.4786 247° West 360 414 36,000  Level Kansas City Center
12:08PM 38.2975 -100.6083 247° West 359 413 36,000  Level Kansas City Center
12:09PM 38.2597 -100.7189 247° West 358 412 36,000  Level Kansas City Center
12:10PM 38.2167 -100.8472 247° West 356 410 36,000  Level Kansas City Center
12:11PM 38.1792 -100.9569 247° West 356 410 36,000  Level Kansas City Center
12:13PM 38.1289 -101.1014 246° West 353 406 36,000  Level Denver Center
12:14PM 38.0861 -101.2269 247° West 350 403 36,000  Level Denver Center
12:15PM 38.0483 -101.3331 246° West 347 399 36,000  Level Denver Center
12:16PM 38.0061 -101.4572 247° West 345 397 36,000  Level Denver Center
12:17PM 37.9686 -101.5631 246° West 347 399 36,000  Level Denver Center
12:18PM 37.9253 -101.6889 246° West 350 403 36,000  Level Denver Center
12:19PM 37.8878 -101.7944 246° West 346 398 36,000  Level Denver Center
12:20PM 37.8489 -101.9008 245° Southwest 347 399 36,000  Level Denver Center
12:21PM 37.8061 -102.0253 247° West 346 398 36,000  Level Denver Center
12:22PM 37.7683 -102.1308 246° West 346 398 36,000  Level Denver Center
12:23PM 37.7253 -102.2544 246° West 344 396 36,000  Level Denver Center
12:24PM 37.6875 -102.3603 246° West 347 399 36,000  Level Denver Center
12:25PM 37.6419 -102.4842 245° Southwest 346 398 36,000  Level Denver Center
12:26PM 37.6072 -102.6017 250° West 352 405 36,000  Level Denver Center
12:27PM 37.5811 -102.7108 253° West 342 394 36,000  Level Denver Center
12:28PM 37.5492 -102.8392 253° West 343 395 36,000  Level Denver Center
12:29PM 37.5228 -102.9500 253° West 345 397 36,000  Level Denver Center
12:31PM 37.4667 -103.1628 252° West 347 399 36,000  Level Albuquerque Center
12:31PM 37.4608 -103.1908 255° West 348 400 36,000  Level Denver Center
12:32PM 37.4281 -103.3214 252° West 350 403 36,000  Level Denver Center
12:33PM 37.4000 -103.4328 252° West 349 402 36,000  Level Denver Center
12:34PM 37.3661 -103.5622 252° West 350 403 36,000  Level Denver Center
12:35PM 37.3378 -103.6756 253° West 353 406 36,000  Level Denver Center
12:36PM 37.3078 -103.7894 252° West 356 410 36,000  Level Denver Center
12:37PM 37.2736 -103.9239 252° West 359 413 36,000  Level Denver Center
12:38PM 37.2433 -104.0372 251° West 356 410 36,000  Level Denver Center
12:39PM 37.2081 -104.1700 252° West 358 412 36,000  Level Denver Center
12:40PM 37.1772 -104.2831 251° West 358 412 36,000  Level Denver Center
12:41PM 37.1433 -104.4158 252° West 359 413 36,000  Level Denver Center
12:42PM 37.1131 -104.5314 252° West 366 421 36,000  Level Denver Center
12:44PM 37.0822 -104.6483 252° West 369 425 36,000  Level Denver Center
12:45PM 37.0461 -104.7842 252° West 367 422 36,000  Level Denver Center
12:46PM 37.0147 -104.8978 251° West 364 419 36,000  Level Denver Center
12:47PM 36.9808 -105.0186 251° West 364 419 36,000  Level Denver Center
12:48PM 36.9497 -105.1361 252° West 358 412 36,000  Level Denver Center
12:49PM 36.9108 -105.2753 251° West 362 417 36,000  Level Denver Center
12:50PM 36.8706 -105.4250 251° West 358 412 36,000  Level Denver Center
12:51PM 36.8392 -105.5381 251° West 361 415 36,000  Level Denver Center
12:52PM 36.8075 -105.6500 251° West 361 415 36,000  Level Denver Center
12:53PM 36.7703 -105.7792 250° West 357 411 36,000  Level Denver Center
12:54PM 36.7361 -105.9097 252° West 358 412 36,000  Level Denver Center
12:55PM 36.7031 -106.0281 251° West 363 418 36,000  Level Denver Center
12:56PM 36.6689 -106.1461 250° West 367 422 36,000  Level Denver Center
12:57PM 36.6361 -106.2631 251° West 361 415 36,000  Level Denver Center
12:58PM 36.6025 -106.3808 250° West 361 415 36,000  Level Denver Center
12:58PM 36.5908 -106.4258 252° West 362 417 36,000  Level Albuquerque Center
01:00PM 36.5581 -106.5378 250° West 360 414 36,000  Level Albuquerque Center
01:01PM 36.5197 -106.6694 250° West 362 417 36,000  Level Albuquerque Center
01:01PM 36.4925 -106.7611 250° West 360 414 36,000  Level Denver Center
01:02PM 36.4606 -106.8739 251° West 361 415 36,000  Level Denver Center
01:03PM 36.4219 -107.0056 250° West 362 417 36,000  Level Denver Center
01:04PM 36.3903 -107.1181 251° West 361 415 36,000  Level Denver Center
01:05PM 36.3508 -107.2506 250° West 365 420 36,000  Level Denver Center
01:06PM 36.3453 -107.2703 251° West 365 420 36,000  Level Albuquerque Center
01:07PM 36.3056 -107.4019 250° West 365 420 36,000  Level Albuquerque Center
01:08PM 36.2583 -107.5047 240° Southwest 360 414 36,000  Level Albuquerque Center
01:09PM 36.1881 -107.6156 232° Southwest 364 419 36,000  Level Albuquerque Center
01:11PM 36.0881 -107.7725 232° Southwest 366 421 36,000  Level Denver Center
01:11PM 36.0572 -107.8217 232° Southwest 366 421 36,000  Level Albuquerque Center
01:12PM 35.9964 -107.9172 232° Southwest 368 423 36,000  Level Albuquerque Center
01:13PM 35.9347 -108.0131 232° Southwest 370 426 36,000  Level Albuquerque Center
01:14PM 35.8608 -108.1250 231° Southwest 373 429 36,000  Level Albuquerque Center
01:15PM 35.7975 -108.2244 232° Southwest 379 436 36,000  Level Albuquerque Center
01:16PM 35.7239 -108.3364 231° Southwest 377 434 36,000  Level Albuquerque Center
01:17PM 35.6611 -108.4319 231° Southwest 374 430 36,000 -240 Level Albuquerque Center
01:18PM 35.5883 -108.5428 231° Southwest 372 428 35,600 -660 Descending Albuquerque Center
01:19PM 35.5275 -108.6364 231° Southwest 367 422 34,700 -780 Descending Albuquerque Center
01:20PM 35.4561 -108.7433 231° Southwest 364 419 34,000 -360 Descending Albuquerque Center
01:21PM 35.3961 -108.8350 231° Southwest 359 413 34,000  Level Albuquerque Center
01:22PM 35.3356 -108.9267 231° Southwest 360 414 34,000  Level Albuquerque Center
01:23PM 35.2650 -109.0331 231° Southwest 361 415 34,000  Level Albuquerque Center
01:24PM 35.2039 -109.1253 231° Southwest 362 417 34,000  Level Albuquerque Center
01:25PM 35.1308 -109.2322 230° Southwest 364 419 34,000  Level Albuquerque Center
01:26PM 35.0694 -109.3261 231° Southwest 367 422 34,000  Level Albuquerque Center
01:27PM 34.9969 -109.4333 230° Southwest 367 422 34,000  Level Albuquerque Center
01:28PM 34.9322 -109.5228 229° Southwest 365 420 34,000  Level Albuquerque Center
01:30PM 34.8586 -109.6331 231° Southwest 371 427 34,000  Level Albuquerque Center
01:31PM 34.7953 -109.7278 231° Southwest 376 433 34,000  Level Albuquerque Center
01:32PM 34.7231 -109.8339 230° Southwest 368 423 34,000  Level Albuquerque Center
01:33PM 34.6775 -109.9381 242° Southwest 364 419 34,000  Level Albuquerque Center
01:34PM 34.6306 -110.0644 246° West 367 422 34,000  Level Albuquerque Center
01:35PM 34.5925 -110.1775 248° West 374 430 34,000  Level Albuquerque Center
01:36PM 34.5517 -110.2872 246° West 372 428 34,000 -480 Level Albuquerque Center
01:37PM 34.5008 -110.4094 243° Southwest 366 421 33,100 -1,020 Descending Albuquerque Center
01:38PM 34.4669 -110.5147 249° West 367 422 31,900 -1,800 Descending Albuquerque Center
01:39PM 34.4172 -110.6383 244° Southwest 344 396 29,500 -2,160 Descending Albuquerque Center
01:40PM 34.3800 -110.7389 246° West 331 381 27,500 -1,860 Descending Albuquerque Center
01:41PM 34.3333 -110.8258 237° Southwest 314 361 25,700 -1,740 Descending Albuquerque Center
01:42PM 34.2778 -110.8950 226° Southwest 289 333 24,000 -1,680 Descending Albuquerque Center
01:43PM 34.2231 -110.9656 227° Southwest 286 329 22,300 -1,800 Descending Albuquerque Center
01:44PM 34.1631 -111.0439 227° Southwest 308 354 20,400 -1,980 Descending Albuquerque Center
01:45PM 34.0939 -111.1308 226° Southwest 303 349 18,300 -1,860 Descending Albuquerque Center
01:46PM 34.0394 -111.2022 227° Southwest 294 338 16,600 -1,680 Descending Albuquerque Center
01:47PM 33.9850 -111.2725 227° Southwest 288 331 14,900 -1,680 Descending Albuquerque Center
01:48PM 33.9275 -111.3464 227° Southwest 300 345 13,200 -1,500 Descending Albuquerque Center
01:49PM 33.8672 -111.4183 225° Southwest 302 348 11,900 -1,080 Descending Albuquerque Center
01:50PM 33.8011 -111.4739 215° Southwest 289 333 11,000 -1,140 Descending Albuquerque Center
01:51PM 33.7389 -111.5275 216° Southwest 276 318 9,600 -1,380 Descending Albuquerque Center
01:52PM 33.6667 -111.5897 216° Southwest 267 307 8,200 -1,020 Descending Albuquerque Center
01:53PM 33.6117 -111.6325 213° Southwest 236 272 7,600 -780 Descending Albuquerque Center
01:54PM 33.5683 -111.6836 225° Southwest 219 252 6,600 -1,020 Descending Albuquerque Center
01:55PM 33.5247 -111.7333 224° Southwest 216 249 5,500 -1,080 Descending Albuquerque Center
01:56PM 33.4819 -111.7828 224° Southwest 213 245 4,400 -900 Descending Albuquerque Center
01:57PM 33.4489 -111.8283 229° Southwest 185 213 3,700 -780 Descending Albuquerque Center
01:58PM 33.4403 -111.8856 260° West 175 201 2,800 -960 Descending Albuquerque Center
02:00PM 33.4414 -111.9517 271° West 166 191 1,800 -840 Descending Albuquerque Center
02:01PM 33.4400 -111.9989 268° West 156 180 1,100 -720 Descending Albuquerque Center
02:03PM 33.4343 -112.0116 270° West  Level Estimated